| time (UTC) | temp F | wind direction | speed knots | gust knots | rain 1hr in | rain 24hr in | rain mn in | humidity % | barometer mb |
| 20260507152024 | 58 | 218 | 3.5 | 7.0 | 0.00 | 0.11 | 0.06 | 62 | 1040.0 |
| 20260507151024 | 59 | 215 | 2.6 | 4.3 | 0.00 | 0.11 | 0.06 | 60 | 1040.1 |
| 20260507150024 | 59 | 246 | 2.6 | 7.0 | 0.00 | 0.11 | 0.06 | 60 | 1040.1 |
| 20260507145024 | 59 | 176 | 3.5 | 6.1 | 0.00 | 0.11 | 0.06 | 61 | 1040.3 |
| 20260507144024 | 58 | 293 | 3.5 | 7.8 | 0.00 | 0.11 | 0.06 | 62 | 1040.2 |
| 20260507143024 | 58 | 292 | 3.5 | 7.0 | 0.00 | 0.11 | 0.06 | 63 | 1040.4 |
| 20260507142024 | 58 | 82 | 3.5 | 7.0 | 0.00 | 0.11 | 0.06 | 62 | 1040.3 |
| 20260507141023 | 59 | 144 | 1.7 | 7.0 | 0.00 | 0.11 | 0.06 | 62 | 1040.3 |
| 20260507140024 | 58 | 184 | 3.5 | 7.0 | 0.00 | 0.11 | 0.06 | 62 | 1040.2 |
| 20260507135023 | 58 | 291 | 3.5 | 7.0 | 0.00 | 0.11 | 0.06 | 63 | 1040.4 |
| 20260507134023 | 58 | 181 | 2.6 | 5.2 | 0.00 | 0.11 | 0.06 | 67 | 1040.4 |
| 20260507133025 | 58 | 269 | 2.6 | 4.3 | 0.00 | 0.11 | 0.06 | 65 | 1040.3 |
| 20260507132024 | 58 | 310 | 2.6 | 5.2 | 0.00 | 0.11 | 0.06 | 68 | 1040.2 |
| 20260507131024 | 58 | 163 | 2.6 | 7.0 | 0.01 | 0.11 | 0.06 | 72 | 1040.4 |
| 20260507130023 | 57 | 205 | 2.6 | 5.2 | 0.01 | 0.11 | 0.06 | 74 | 1040.4 |
| 20260507125023 | 56 | 158 | 1.7 | 3.5 | 0.01 | 0.11 | 0.06 | 79 | 1040.1 |
| 20260507124024 | 55 | 267 | 0.9 | 3.5 | 0.02 | 0.11 | 0.06 | 83 | 1040.3 |
| 20260507123024 | 53 | 309 | 1.7 | 3.5 | 0.02 | 0.11 | 0.06 | 88 | 1040.4 |
| 20260507122024 | 53 | 282 | 1.7 | 3.5 | 0.04 | 0.11 | 0.06 | 89 | 1040.6 |
| 20260507121023 | 53 | 307 | 0.9 | 1.7 | 0.05 | 0.09 | 0.05 | 90 | 1040.2 |
| 20260507120023 | 52 | 316 | 1.7 | 3.5 | 0.05 | 0.09 | 0.05 | 90 | 1040.4 |
| 20260507115023 | 52 | 291 | 1.7 | 3.5 | 0.05 | 0.09 | 0.05 | 90 | 1040.6 |
| 20260507114023 | 51 | 182 | 2.6 | 4.3 | 0.04 | 0.08 | 0.04 | 89 | 1040.5 |
| 20260507113024 | 52 | 277 | 1.7 | 5.2 | 0.04 | 0.08 | 0.04 | 88 | 1040.8 |
| 20260507112023 | 52 | 283 | 2.6 | 5.2 | 0.02 | 0.07 | 0.02 | 84 | 1040.6 |
| 20260507111023 | 53 | 255 | 3.5 | 7.0 | 0.00 | 0.05 | 0.00 | 78 | 1040.5 |
| 20260507110024 | 54 | 168 | 3.5 | 7.0 | 0.00 | 0.05 | 0.00 | 73 | 1040.5 |
| 20260507105023 | 55 | 187 | 3.5 | 6.1 | 0.00 | 0.05 | 0.00 | 70 | 1040.6 |
| 20260507104023 | 55 | 323 | 1.7 | 3.5 | 0.00 | 0.05 | 0.00 | 73 | 1040.5 |
| 20260507103023 | 54 | 315 | 1.7 | 6.1 | 0.00 | 0.05 | 0.00 | 78 | 1040.4 |
| 20260507102023 | 54 | 307 | 2.6 | 6.1 | 0.00 | 0.05 | 0.00 | 78 | 1040.4 |
| 20260507101023 | 54 | 151 | 0.9 | 2.6 | 0.00 | 0.05 | 0.00 | 83 | 1040.4 |
| 20260507100023 | 53 | 249 | 1.7 | 3.5 | 0.00 | 0.05 | 0.00 | 84 | 1040.2 |
| 20260507095023 | 52 | 201 | 1.7 | 3.5 | 0.00 | 0.05 | 0.00 | 83 | 1040.5 |
| 20260507094023 | 52 | 240 | 1.7 | 4.3 | 0.00 | 0.05 | 0.00 | 83 | 1040.4 |
| 20260507093024 | 52 | 309 | 2.6 | 7.0 | 0.00 | 0.05 | 0.00 | 82 | 1040.4 |
| 20260507092023 | 52 | 214 | 2.6 | 7.0 | 0.00 | 0.05 | 0.00 | 83 | 1040.0 |
| 20260507091023 | 52 | 319 | 3.5 | 7.0 | 0.00 | 0.05 | 0.00 | 82 | 1040.1 |
| 20260507090024 | 53 | 299 | 2.6 | 7.8 | 0.00 | 0.05 | 0.00 | 83 | 1040.0 |
| 20260507085023 | 53 | 282 | 1.7 | 5.2 | 0.00 | 0.05 | 0.00 | 86 | 1040.0 |
| 20260507084023 | 52 | 291 | 2.6 | 7.8 | 0.00 | 0.05 | 0.00 | 86 | 1039.9 |
| 20260507082023 | 51 | 212 | 2.6 | 6.1 | 0.00 | 0.05 | 0.00 | 86 | 1039.9 |
| 20260507081023 | 51 | 144 | 2.6 | 4.3 | 0.00 | 0.05 | 0.00 | 87 | 1039.6 |
| 20260507080023 | 51 | 312 | 2.6 | 5.2 | 0.00 | 0.05 | 0.00 | 86 | 1039.5 |
| 20260507075023 | 50 | 260 | 1.7 | 4.3 | 0.00 | 0.05 | 0.00 | 85 | 1039.5 |
| 20260507074022 | 51 | 242 | 2.6 | 5.2 | 0.00 | 0.05 | 0.00 | 84 | 1039.6 |
| 20260507073025 | 51 | 19 | 2.6 | 7.0 | 0.00 | 0.05 | 0.00 | 83 | 1039.3 |
| 20260507072024 | 51 | 292 | 2.6 | 5.2 | 0.00 | 0.05 | 0.00 | 83 | 1039.3 |
| 20260507071024 | 51 | 246 | 2.6 | 7.0 | 0.00 | 0.05 | 0.00 | 84 | 1039.1 |
| 20260507070024 | 50 | 261 | 2.6 | 7.0 | 0.00 | 0.05 | 0.00 | 83 | 1039.1 |
| 20260507065023 | 50 | 338 | 2.6 | 7.8 | 0.00 | 0.05 | 0.00 | 83 | 1039.1 |
| 20260507064023 | 51 | 189 | 2.6 | 7.0 | 0.00 | 0.05 | 0.00 | 82 | 1039.0 |
| 20260507063023 | 51 | 317 | 2.6 | 6.1 | 0.00 | 0.05 | 0.00 | 82 | 1038.7 |
| 20260507062023 | 51 | 318 | 2.6 | 6.1 | 0.00 | 0.05 | 0.00 | 83 | 1038.9 |
| 20260507061023 | 51 | 292 | 2.6 | 5.2 | 0.00 | 0.05 | 0.00 | 83 | 1038.7 |
| 20260507060023 | 50 | 284 | 2.6 | 7.0 | 0.00 | 0.05 | 0.00 | 83 | 1038.7 |
| 20260507055023 | 50 | 292 | 2.6 | 5.2 | 0.00 | 0.05 | 0.00 | 84 | 1038.6 |
| 20260507054022 | 50 | 186 | 2.6 | 5.2 | 0.00 | 0.05 | 0.00 | 84 | 1038.5 |
| 20260507053024 | 50 | 317 | 1.7 | 5.2 | 0.00 | 0.05 | 0.00 | 84 | 1038.4 |
| 20260507052023 | 50 | 176 | 1.7 | 5.2 | 0.00 | 0.05 | 0.00 | 84 | 1038.3 |
| 20260507051023 | 49 | 263 | 2.6 | 6.1 | 0.00 | 0.05 | 0.00 | 84 | 1038.3 |
| 20260507050023 | 50 | 256 | 1.7 | 3.5 | 0.00 | 0.05 | 0.00 | 85 | 1038.3 |
| 20260507045023 | 49 | 285 | 1.7 | 7.0 | 0.00 | 0.05 | 0.00 | 86 | 1037.8 |
| 20260507044023 | 48 | 272 | 0.9 | 2.6 | 0.00 | 0.05 | 0.00 | 86 | 1037.9 |
| 20260507043024 | 47 | 286 | 0.9 | 3.5 | 0.00 | 0.05 | 0.00 | 85 | 1037.9 |
| 20260507042023 | 47 | 339 | 1.7 | 5.2 | 0.00 | 0.05 | 0.00 | 84 | 1037.7 |
| 20260507041022 | 48 | 149 | 1.7 | 6.1 | 0.00 | 0.05 | 0.00 | 84 | 1037.5 |
| 20260507040023 | 48 | 281 | 1.7 | 3.5 | 0.00 | 0.05 | 0.00 | 84 | 1037.6 |
| 20260507035023 | 47 | 269 | 0.9 | 3.5 | 0.00 | 0.05 | 0.00 | 84 | 1037.4 |
| 20260507034024 | 48 | 241 | 0.9 | 3.5 | 0.00 | 0.05 | 0.00 | 84 | 1037.5 |
| 20260507033024 | 48 | 282 | 1.7 | 4.3 | 0.00 | 0.05 | 0.00 | 85 | 1037.2 |
| 20260507032024 | 47 | 279 | 1.7 | 7.0 | 0.00 | 0.05 | 0.00 | 87 | 1037.3 |
| 20260507031023 | 47 | 282 | 1.7 | 3.5 | 0.00 | 0.05 | 0.00 | 88 | 1037.4 |
| 20260507030024 | 47 | 295 | 0.9 | 3.5 | 0.00 | 0.05 | 0.00 | 88 | 1037.3 |
| 20260507025023 | 47 | 318 | 1.7 | 3.5 | 0.00 | 0.05 | 0.00 | 88 | 1037.4 |
| 20260507024023 | 47 | 271 | 1.7 | 3.5 | 0.00 | 0.05 | 0.00 | 88 | 1037.1 |
| 20260507023023 | 47 | 325 | 1.7 | 5.2 | 0.00 | 0.05 | 0.00 | 88 | 1037.1 |
| 20260507022023 | 47 | 304 | 1.7 | 3.5 | 0.00 | 0.05 | 0.00 | 87 | 1037.3 |
| 20260507021023 | 47 | 347 | 1.7 | 5.2 | 0.00 | 0.05 | 0.00 | 87 | 1037.3 |
| 20260507020024 | 47 | 317 | 2.6 | 7.0 | 0.00 | 0.05 | 0.00 | 87 | 1037.1 |
| 20260507015024 | 48 | 318 | 3.5 | 7.0 | 0.00 | 0.05 | 0.00 | 88 | 1037.0 |
| 20260507014023 | 48 | 323 | 4.3 | 9.6 | 0.00 | 0.05 | 0.00 | 88 | 1036.9 |
| 20260507013024 | 47 | 345 | 4.3 | 8.7 | 0.00 | 0.05 | 0.00 | 88 | 1037.0 |
| 20260507012024 | 47 | 337 | 3.5 | 8.7 | 0.00 | 0.05 | 0.00 | 88 | 1037.1 |
| 20260507011023 | 47 | 338 | 3.5 | 7.0 | 0.00 | 0.05 | 0.00 | 89 | 1037.1 |
| 20260507010024 | 47 | 316 | 2.6 | 6.1 | 0.00 | 0.05 | 0.00 | 89 | 1036.8 |
| 20260507005024 | 47 | 303 | 1.7 | 4.3 | 0.00 | 0.05 | 0.00 | 89 | 1036.6 |
| 20260507004024 | 47 | 237 | 1.7 | 4.3 | 0.00 | 0.05 | 0.00 | 89 | 1036.8 |
| 20260507003024 | 47 | 246 | 1.7 | 5.2 | 0.00 | 0.05 | 0.00 | 89 | 1036.9 |
| 20260507002024 | 47 | 255 | 0.9 | 3.5 | 0.00 | 0.05 | 0.00 | 89 | 1036.8 |
| 20260507001024 | 47 | 222 | 0.9 | 1.7 | 0.00 | 0.05 | 0.00 | 89 | 1036.7 |
| 20260507000024 | 47 | 283 | 1.7 | 4.3 | 0.00 | 0.05 | 0.00 | 89 | 1036.9 |
| 20260506235024 | 48 | 319 | 2.6 | 5.2 | 0.00 | 0.05 | 0.00 | 89 | 1037.0 |
| 20260506234024 | 48 | 337 | 1.7 | 4.3 | 0.00 | 0.05 | 0.00 | 89 | 1036.9 |
| 20260506233024 | 48 | 317 | 1.7 | 4.3 | 0.00 | 0.05 | 0.00 | 89 | 1037.1 |
| 20260506232023 | 48 | 317 | 2.6 | 3.5 | 0.00 | 0.05 | 0.00 | 88 | 1037.0 |
| 20260506231024 | 49 | 328 | 1.7 | 4.3 | 0.00 | 0.05 | 0.00 | 88 | 1036.8 |
| 20260506230024 | 49 | 347 | 1.7 | 5.2 | 0.00 | 0.05 | 0.00 | 89 | 1036.8 |
| 20260506225024 | 49 | 357 | 1.7 | 4.3 | 0.00 | 0.05 | 0.00 | 89 | 1037.0 |
| 20260506224024 | 49 | 310 | 1.7 | 3.5 | 0.00 | 0.05 | 0.00 | 89 | 1036.8 |
| 20260506223024 | 49 | 310 | 0.9 | 2.6 | 0.00 | 0.05 | 0.00 | 89 | 1036.8 |
| 20260506222024 | 49 | 308 | 1.7 | 4.3 | 0.00 | 0.05 | 0.00 | 89 | 1037.0 |
| 20260506221023 | 49 | 354 | 1.7 | 3.5 | 0.00 | 0.05 | 0.00 | 88 | 1036.6 |
| 20260506220028 | 49 | 310 | 2.6 | 7.0 | 0.00 | 0.05 | 0.00 | 88 | 1036.6 |
| 20260506215024 | 49 | 287 | 2.6 | 8.7 | 0.00 | 0.05 | 0.05 | 88 | 1036.6 |
| 20260506214023 | 49 | 305 | 2.6 | 6.1 | 0.00 | 0.05 | 0.05 | 88 | 1036.2 |
| 20260506213025 | 49 | 292 | 1.7 | 4.3 | 0.00 | 0.05 | 0.05 | 88 | 1036.3 |
| 20260506212024 | 49 | 292 | 2.6 | 6.1 | 0.00 | 0.05 | 0.05 | 88 | 1036.3 |
| 20260506211024 | 49 | 308 | 2.6 | 7.0 | 0.00 | 0.05 | 0.05 | 88 | 1036.4 |
| 20260506210024 | 49 | 301 | 3.5 | 7.0 | 0.00 | 0.05 | 0.05 | 89 | 1036.2 |
| 20260506205023 | 49 | 165 | 0.9 | 4.3 | 0.00 | 0.05 | 0.05 | 89 | 1036.2 |
| 20260506204023 | 49 | 312 | 1.7 | 4.3 | 0.00 | 0.05 | 0.05 | 88 | 1035.9 |
| 20260506203025 | 49 | 259 | 1.7 | 3.5 | 0.00 | 0.06 | 0.05 | 89 | 1036.1 |
| 20260506202023 | 49 | 287 | 0.9 | 3.5 | 0.00 | 0.06 | 0.05 | 88 | 1036.2 |
| 20260506201023 | 49 | 1 | 0.9 | 3.5 | 0.00 | 0.07 | 0.05 | 88 | 1035.9 |
| 20260506200024 | 49 | 279 | 1.7 | 5.2 | 0.00 | 0.07 | 0.05 | 87 | 1036.2 |
| 20260506195023 | 50 | 306 | 2.6 | 7.0 | 0.00 | 0.07 | 0.05 | 87 | 1035.9 |
| 20260506194024 | 50 | 295 | 2.6 | 5.2 | 0.00 | 0.07 | 0.05 | 87 | 1036.0 |
| 20260506193024 | 50 | 315 | 1.7 | 4.3 | 0.00 | 0.07 | 0.05 | 87 | 1035.9 |
| 20260506192023 | 50 | 262 | 1.7 | 5.2 | 0.00 | 0.07 | 0.05 | 86 | 1036.0 |
| 20260506191023 | 50 | 296 | 2.6 | 7.0 | 0.00 | 0.07 | 0.05 | 85 | 1035.5 |
| 20260506190024 | 50 | 288 | 1.7 | 3.5 | 0.00 | 0.07 | 0.05 | 85 | 1035.6 |
| 20260506185023 | 51 | 255 | 1.7 | 5.2 | 0.00 | 0.07 | 0.05 | 84 | 1035.3 |
| 20260506184023 | 51 | 262 | 1.7 | 5.2 | 0.00 | 0.07 | 0.05 | 84 | 1035.4 |
| 20260506183024 | 51 | 282 | 2.6 | 5.2 | 0.00 | 0.07 | 0.05 | 84 | 1035.2 |
| 20260506182023 | 51 | 279 | 2.6 | 6.1 | 0.00 | 0.07 | 0.05 | 84 | 1035.0 |
| 20260506181024 | 51 | 329 | 3.5 | 10.4 | 0.00 | 0.07 | 0.05 | 84 | 1035.0 |
| 20260506180024 | 51 | 209 | 2.6 | 7.0 | 0.00 | 0.07 | 0.05 | 84 | 1034.8 |
| 20260506175029 | 51 | 320 | 2.6 | 9.6 | 0.00 | 0.07 | 0.05 | 84 | 1034.7 |
| 20260506174024 | 51 | 301 | 1.7 | 3.5 | 0.00 | 0.07 | 0.05 | 83 | 1034.6 |
| 20260506173024 | 51 | 188 | 2.6 | 7.0 | 0.00 | 0.07 | 0.05 | 83 | 1034.4 |
| 20260506172023 | 51 | 262 | 2.6 | 7.8 | 0.00 | 0.07 | 0.05 | 84 | 1034.2 |
| 20260506171023 | 51 | 285 | 1.7 | 3.5 | 0.00 | 0.07 | 0.05 | 84 | 1034.1 |
| 20260506170024 | 51 | 288 | 2.6 | 6.1 | 0.00 | 0.07 | 0.05 | 84 | 1033.8 |
| 20260506165023 | 52 | 280 | 2.6 | 7.0 | 0.00 | 0.07 | 0.05 | 83 | 1033.9 |
| 20260506164023 | 52 | 286 | 3.5 | 8.7 | 0.00 | 0.07 | 0.05 | 83 | 1034.1 |
| 20260506163023 | 52 | 193 | 4.3 | 9.6 | 0.00 | 0.07 | 0.05 | 84 | 1034.1 |
| 20260506162023 | 53 | 243 | 6.1 | 13.0 | 0.05 | 0.07 | 0.05 | 84 | 1033.9 |
| 20260506161023 | 53 | 353 | 7.0 | 10.4 | 0.05 | 0.07 | 0.05 | 85 | 1033.9 |
| 20260506160024 | 53 | 254 | 3.5 | 10.4 | 0.05 | 0.07 | 0.05 | 88 | 1033.9 |
| 20260506155023 | 53 | 275 | 5.2 | 9.6 | 0.05 | 0.07 | 0.05 | 88 | 1033.8 |
| 20260506154023 | 53 | 213 | 4.3 | 9.6 | 0.05 | 0.07 | 0.05 | 88 | 1033.8 |
| 20260506153024 | 54 | 302 | 3.5 | 7.8 | 0.05 | 0.07 | 0.05 | 81 | 1033.6 |